Location: Starlight Observatory
(38.4029°N, 85.8936°W)
Time: 17:17:08
(UTC-05:00)

Daily predictions for brighter satellites

Satellite Brightness Start Highest point End
(mag) Time Altitude Azimuth Time Altitude Azimuth Time Altitude Azimuth
Cosmos 1844 Rocket 4.3 17:42:30 10° WSW 17:47:28 32° WNW 17:52:28 10° N
Cosmos 494 Rocket 4.2 17:43:26 10° NNW 17:48:42 79° WSW 17:53:57 10° SSE
SMAP 3.4 17:46:43 10° SE 17:51:07 45° ENE 17:55:34 10° N
Ariane Rocket 4.3 17:47:45 10° S 17:52:35 45° W 17:57:27 10° NNW
CORIOLIS 4.4 17:50:03 10° SE 17:55:12 47° ENE 18:00:21 10° N
Cosmos 1975 2.8 17:53:27 10° N 17:57:29 63° E 18:01:28 10° SSE
Cosmos 1812 3.5 17:59:11 10° SSW 18:02:57 55° W 18:06:46 10° N
Okean 1-7 Rocket 4.3 17:58:54 10° SSE 18:02:58 34° E 18:07:00 10° NNE
Tiangong 1 1.7 18:03:57 10° W 18:06:51 40° N 18:09:19 13° ENE
CZ-4 R/B 1.4 18:02:51 10° SSE 18:07:01 88° ENE 18:11:09 10° NNW
MOS 1 4.3 18:01:56 10° SSE 18:07:35 75° ENE 18:13:13 10° N
SPOT 3 Rocket 3.5 18:06:17 10° SSE 18:11:27 77° ENE 18:16:38 10° N
MSX 4.0 18:06:23 10° SE 18:11:56 52° ENE 18:17:29 10° N
COSMOS 2487 2.5 18:09:31 10° NNW 18:13:07 88° WSW 18:16:42 10° SSE
Cosmos 2366 rocket 4.4 18:08:12 10° NNW 18:14:29 69° W 18:20:41 10° S
AQUARIUS 4.1 18:12:25 10° SSE 18:16:54 87° ENE 18:21:25 10° NNW
Meteor 2-21 4.4 18:11:33 10° N 18:17:42 71° E 18:23:47 10° SSE
NOSS 2-1 (D) 3.4 18:21:39 10° SW 18:25:26 74° NW 18:29:25 11° NNE
NOSS 7 (E) 4.4 18:21:56 10° SSW 18:25:28 65° ESE 18:27:49 18° NE
Cosmos 2297 3.9 18:19:54 10° SSW 18:25:31 73° WNW 18:31:10 10° NNE
NOSS 2-1 (C) 3.4 18:22:18 10° SW 18:26:07 76° NW 18:30:04 12° NNE
COSMO-SKYMED 1 2.7 18:28:47 10° NNE 18:33:01 50° E 18:37:13 10° S
Cosmos 2278 Rocket 3.9 18:29:11 10° WSW 18:34:06 30° WNW 18:39:02 10° N
Meteor 2-14 Rocket 4.4 18:28:39 10° N 18:34:48 71° E 18:40:54 10° SSE
Cosmos 921 Rocket 3.3 18:31:55 10° SSW 18:36:09 66° WNW 18:40:28 10° N
NOSS 7 (D) 4.3 18:33:12 10° SSW 18:36:47 80° ESE 18:38:44 23° NE
Cosmos 1025 Rocket 3.1 18:33:34 10° S 18:37:49 54° E 18:42:08 10° NNE
Abrixas 2.6 18:36:10 10° WNW 18:39:07 69° SW 18:41:15 17° SE
Cosmos 1666 3.2 18:35:42 10° N 18:39:19 37° E 18:42:56 10° SSE
IDEFIX/ARIANE 42P 3.4 18:37:49 10° S 18:42:53 54° W 18:47:58 10° NNW
Cosmos 1346 Rocket 4.4 18:40:14 10° SW 18:43:48 35° WNW 18:47:23 10° N
NOSS 2-1 (E) 4.0 18:41:06 10° SW 18:44:52 52° NW 18:48:15 15° NNE
BREEZE-M DEB (TANK) 4.3 18:44:36 10° NNW 18:45:01 10° N 18:45:01 10° N
Cosmos 1821 Rocket 3.9 18:41:40 10° N 18:47:45 67° E 18:53:47 10° SSE
Cosmos 1833 Rocket 2.8 18:46:02 10° NNW 18:51:42 80° WSW 18:57:18 10° SSE
YAOGAN 1 4.2 18:51:00 10° SSW 18:55:00 37° W 18:59:02 10° NNW
CZ-3B DEB 3.9 18:53:58 10° WNW 18:58:18 30° N 19:04:32 16° NE
Cosmos 1605 Rocket 4.2 18:52:30 10° N 18:58:29 45° ENE 19:04:21 10° SSE
DMSP B5D1-3 4.4 18:54:39 10° NNE 18:59:48 73° ESE 19:04:54 10° S
Cosmos 2082 Rocket 2.9 18:55:32 10° NNW 19:01:04 56° WSW 19:06:36 10° S
USA 234 3.8 18:56:14 16° NNE 19:01:17 51° NW 19:07:33 10° WSW
Cosmos 1743 3.7 18:59:40 10° NNW 19:03:25 48° W 19:07:06 10° SSW
CZ-2C R/B 4.4 19:00:17 10° SSW 19:04:43 31° W 19:09:16 10° NNW
Intercosmos 25 4.4 19:04:35 10° NNW 19:07:34 39° W 19:11:03 10° SSW
Meteor 1-28 Rocket 3.0 19:06:27 44° NNE 19:07:34 76° E 19:11:20 10° S
BREEZE M DEB (TANK) 3.1 19:05:08 10° WSW 19:12:21 44° NW 19:13:17 35° N
Cosmos 1484 Rocket 4.1 19:15:48 10° SSW 19:19:18 38° W 19:22:48 10° NNW
NOSS 3-4 (A) 3.8 19:13:22 10° NNW 19:20:29 88° ENE 19:28:02 10° SSE
NOSS 3-4 (C) 3.8 19:13:28 10° NNW 19:20:35 87° ENE 19:28:07 10° SSE
Delta 2 Rocket 3.6 19:18:03 10° W 19:21:39 50° S 19:21:53 49° S
Cosmos 407 Rocket 3.3 19:20:07 10° NNW 19:25:17 78° ENE 19:30:27 10° SSE
Cosmos 2056 Rocket 4.2 19:20:41 10° SW 19:25:55 54° WNW 19:29:42 18° N
BREEZE M DEB (TANK) 3.8 19:25:20 10° NW 19:29:40 64° NE 19:34:19 34° ESE
Okean 2 4.0 19:27:46 10° SSW 19:31:51 56° W 19:33:20 35° NNW
Cosmos 1892 Rocket 4.0 19:30:12 10° SSW 19:34:28 60° W 19:35:54 38° NNW
Cosmos 1727 Rocket 3.8 19:29:02 10° S 19:35:14 78° E 19:38:31 30° NNE
Cosmos 676 Rocket 4.3 19:31:35 10° NNW 19:35:31 50° N 19:35:31 50° N
Cosmos 2369 Rocket 2.1 19:31:25 10° S 19:36:50 64° ESE 19:36:50 64° ESE
NOAA 12 4.3 19:34:41 10° S 19:39:57 71° WSW 19:45:12 10° NNW
Cosmos 1726 Rocket 4.3 19:37:57 10° NNW 19:42:17 52° W 19:46:37 10° S
Tiangong 1 4.1 19:40:32 10° WNW 19:41:00 13° WNW 19:41:00 13° WNW
FALCON 9 R/B 3.2 19:26:00 10° W 19:47:05 71° S 19:49:07 50° SE
ATLAS 3B CENTAUR R/B 4.1 19:39:02 10° W 19:56:42 44° SSW 20:00:27 29° SSE
Cosmos 1943 Rocket 4.2 20:00:09 10° S 20:01:06 15° S 20:01:06 15° S
Cosmos 1452 Rocket 4.5 20:09:48 10° SW 20:14:16 45° W 20:14:16 45° W
